Вернуться в каталог

FENGYUN 1C DEB

АктивенSSO
NORAD 32352·DEBRIS·🇨🇳 China

Запущен May 10, 1999 с Taiyuan Satellite Launch Center

Loading…

Ближайшие Пролёты (ближайшие 24 часа)

TLE

СвежийSource: Space-Track

Эпоха: Sep 12, 2026, 00:39 UTC

1 32352U 99025CYV 26255.02749651  .00000652  00000-0  19596-3 0  9990
2 32352  98.7856 187.8097 0122308  77.4252 284.0583 14.41941401692076

Отслеживайте FENGYUN 1C DEB в реальном времени с AllMySat

Download on the App Store